[[{"header":{"parameterUnit":"m.s-1","parameterCategory":1,"la1":30.2991,"la2":30.254,"lo1":-89.0895,"lo2":-89.0444,"dy":0.0017,"dx":0.0017,"nx":28,"ny":28,"refTime":"2024-10-14T03:00:00:Z","depth":0,"parameterNumber":2,"parameterNumberName":"U-component_of_WINDS"},"data":[0,0,0,0,0,0,0,0,0,0,0,0,0,0,0,0,0,0,0,0,0,0,0,0,0,0,0,0,0,0,0,0,0,0,0,0,0,0,0,0,0,0,0,0,0,0,0,0,0,0,0,0,0,0,0,0,0,0,4.8961,4.8964,0,4.9165,4.9167,4.917,4.9118,4.9114,4.911,4.9106,4.9319,4.9328,4.9337,0,0,0,0,0,0,0,0,0,0,0,0,0,4.853,4.8538,4.8961,4.8964,4.8966,4.9165,4.9168,4.917,4.9119,4.9114,4.9109,4.9104,4.9316,4.9327,4.9338,0,0,0,0,0,0,0,0,0,0,0,0,0,4.8724,4.8541,4.8961,4.8964,4.8967,4.9164,4.9168,4.9171,4.912,4.9114,4.9108,4.9102,4.9312,4.9326,4.9339,4.9547,0,0,4.9382,4.9389,0,0,0,0,0,0,0,0,4.8713,4.874,4.8961,4.8965,4.8968,4.911,4.9093,4.9297,4.9121,4.9062,4.9106,4.9099,4.9254,4.9273,4.9324,4.9557,4.9566,4.9384,4.9392,4.9398,4.9402,0,0,0,0,0,0,0,4.87,4.8731,4.9042,4.8965,4.8968,4.8957,4.8978,4.9132,4.919,4.9067,4.9063,4.9088,4.9255,4.9311,4.9329,4.9569,4.9383,4.9396,4.9405,4.941,4.9981,4.9988,0,0,0,0,0,0,4.8684,4.872,4.9035,4.9048,4.8823,4.8969,4.8993,4.907,4.9188,4.92,4.9093,4.9085,4.929,4.9313,4.9336,4.9586,4.9398,4.9411,4.942,4.9975,4.9983,4.999,0,0,0,0,0,0,4.8674,4.8712,4.9027,4.8883,4.8923,4.8983,4.9071,4.9078,4.9133,4.9207,4.9218,4.9139,4.9286,4.9316,4.9494,4.9593,4.9418,4.9431,4.9967,4.9977,4.9986,5.0088,0,0,0,0,0,0,4.8662,4.8709,4.8788,4.8885,4.893,4.9182,4.9077,4.9086,4.9157,4.9149,4.9254,4.9265,4.9284,4.9474,4.9508,4.9609,4.9442,4.9958,4.9971,4.9983,5.0076,5.01,5.0121,0,0,0,0,0,4.8647,4.8809,4.8792,4.8831,4.903,4.9187,4.9213,4.923,4.9166,4.9246,4.9293,4.9262,4.9576,4.9492,4.9531,4.9637,4.9952,4.9968,4.9982,5.0066,5.0096,5.0121,0,0,0,0,0,0,4.8723,4.8822,4.8804,4.9003,4.9087,4.9178,4.928,4.9261,4.9365,4.9353,4.937,4.9394,4.9576,4.9625,4.9529,4.9844,4.9755,4.9779,4.9806,4.9834,4.9856,4.9841,4.9453,0,0,0,0,0,4.8763,4.8882,4.8962,4.913,4.9172,4.9219,4.9288,4.9293,4.9382,4.9417,4.9478,4.9566,4.9684,4.9762,4.9875,5.0083,5.0105,5.0175,5.0198,5.0216,5.0236,5.0349,5.0381,5.004,5.004,5.0039,0,0,4.8847,4.8915,4.899,4.9147,4.9212,4.9335,4.9249,4.9383,4.9475,4.9438,4.9609,4.9657,4.9756,4.995,5.0038,4.9996,5.0335,5.0235,5.0249,5.0259,5.0368,5.04,5.0429,5.005,5.0048,5.0047,0,0,4.9062,4.9126,4.9272,4.9339,4.9439,4.9469,4.9504,4.9599,4.9629,4.98,4.9775,4.9885,5.0089,5.016,5.0223,5.0465,5.044,5.0501,5.0619,5.0729,5.0755,5.0779,5.0865,5.0896,5.0521,5.0522,5.0522,0,4.9154,4.9337,4.935,4.9486,4.9556,4.9527,4.9675,4.974,4.9873,4.9922,4.9872,5.0127,5.0192,5.0401,5.046,5.0512,5.0553,5.0489,5.075,5.0774,5.0797,5.0879,5.0911,5.0528,5.0527,5.0527,5.0526,0,4.9445,4.9572,4.9679,4.9806,4.9887,5.0029,5.0064,5.0146,5.0144,5.0179,5.0355,5.0431,5.0559,5.0609,5.0609,5.0819,5.079,5.0745,5.0656,5.0836,5.0913,5.0945,5.0538,5.0535,5.0533,5.0532,0,0,4.9714,4.9846,4.9884,4.9941,5.0049,5.0149,5.0289,5.0413,5.0482,5.0575,5.0693,5.0866,5.0825,5.0897,5.0905,5.1001,5.1187,5.0945,5.0948,5.0987,5.1423,5.1455,5.1491,5.1171,5.1177,5.1182,5.1414,0,4.9939,5.0184,5.02,5.0423,5.0541,5.0515,5.0637,5.0717,5.0754,5.086,5.0901,5.1023,5.096,5.1003,5.1097,5.1145,5.1275,5.1128,5.1282,5.1288,5.1258,5.1532,5.1567,5.1782,5.1445,5.145,5.1454,0,5.0233,5.0333,5.0567,5.0658,5.0708,5.0817,5.0932,5.1033,5.1123,5.1143,5.1223,5.1217,5.1362,5.1268,5.1467,5.1367,5.1431,5.1464,5.1473,5.1488,5.1381,5.1554,5.1851,5.1883,5.1501,5.1498,5.1494,0,5.0406,5.0599,5.0764,5.0813,5.0923,5.1001,5.105,5.1134,5.1208,5.1308,5.1355,5.1472,5.1536,5.1626,5.1652,5.1581,5.1852,5.1759,5.1872,5.1872,5.193,5.1926,5.2242,5.1973,5.1972,5.1971,5.1971,0,5.0655,5.0799,5.0842,5.0944,5.1105,5.1122,5.1281,5.1326,5.1401,5.1511,5.1496,5.16,5.1628,5.1738,5.1759,5.1921,5.195,5.1971,5.1975,5.1972,5.1969,5.2014,5.2,5.198,5.1978,5.1976,5.1975,0,5.0874,5.0909,5.1087,5.1176,5.1202,5.1317,5.1393,5.1491,5.1525,5.1665,5.1698,5.1753,5.1881,5.1915,5.2069,5.2083,5.2274,5.2264,5.2243,5.2243,5.2354,5.2343,5.2709,5.2757,5.2456,5.2459,5.2462,0,5.1031,5.1141,5.1241,5.1313,5.1365,5.1482,5.1556,5.1577,5.1655,5.1765,5.185,5.1976,5.2077,5.2283,5.2337,5.2454,5.2447,5.2567,5.2465,5.2458,5.2448,5.2441,5.2452,5.2587,5.259,5.2592,5.2594,0,5.1304,5.1316,5.1422,5.1535,5.1624,5.1714,5.1801,5.1861,5.1894,5.1982,5.2112,5.2191,5.2347,5.2472,5.259,5.2642,5.2625,5.2626,5.2658,5.2657,5.264,5.265,5.2296,5.2618,5.2615,5.2614,5.2612,5.2612,5.1497,5.1593,5.1678,5.1798,5.1865,5.1946,5.2041,5.2087,5.2195,5.2323,5.2329,5.247,5.2557,5.2714,5.2772,5.2883,5.2848,5.2895,5.2906,5.2918,5.2927,5.2622,5.2905,5.2905,5.2904,5.2904,5.2903,0,5.1769,5.1822,5.1932,5.2052,5.2146,5.212,5.2214,5.2295,5.2418,5.2501,5.26,5.2749,5.287,5.2933,5.3054,5.313,5.3125,5.3161,5.3156,5.3168,5.2952,5.2912,5.3163,5.3163,5.3163,5.3163,5.3163,5.3163,5.1922,5.2083,5.2105,5.2299,5.2352,5.2488,5.2544,5.2619,5.2685,5.2851,5.2951,5.2991,5.3065,5.3191,5.3301,5.3316,5.3361,5.3402,5.3413,5.321,5.3183,5.3158,5.312,5.3411,5.3412,5.3619,5.3621,5.3623]},{"header":{"parameterUnit":"m.s-1","parameterCategory":1,"la1":30.2991,"la2":30.254,"lo1":-89.0895,"lo2":-89.0444,"dy":0.0017,"dx":0.0017,"nx":28,"ny":28,"refTime":"2024-10-14T03:00:00:Z","depth":0,"parameterNumber":3,"parameterNumberName":"V-component_of_WINDS"},"data":[0,0,0,0,0,0,0,0,0,0,0,0,0,0,0,0,0,0,0,0,0,0,0,0,0,0,0,0,0,0,0,0,0,0,0,0,0,0,0,0,0,0,0,0,0,0,0,0,0,0,0,0,0,0,0,0,0,0,-0.1296,-0.1296,0,-0.1305,-0.1305,-0.1305,-0.1318,-0.1318,-0.1318,-0.1318,-0.1326,-0.1326,-0.1326,0,0,0,0,0,0,0,0,0,0,0,0,0,-0.1292,-0.1292,-0.1296,-0.1296,-0.1297,-0.1305,-0.1305,-0.1305,-0.1318,-0.1318,-0.1318,-0.1318,-0.1326,-0.1326,-0.1326,0,0,0,0,0,0,0,0,0,0,0,0,0,-0.1296,-0.1292,-0.1296,-0.1304,-0.1305,-0.1304,-0.1305,-0.1305,-0.1318,-0.1318,-0.1318,-0.1319,-0.1326,-0.1326,-0.1326,-0.1319,0,0,-0.1326,-0.1326,0,0,0,0,0,0,0,0,-0.1296,-0.1296,-0.1303,-0.1303,-0.1304,-0.131,-0.1306,-0.1309,-0.1317,-0.1313,-0.1318,-0.1319,-0.1321,-0.1321,-0.1322,-0.1319,-0.132,-0.1326,-0.1326,-0.1326,-0.1326,0,0,0,0,0,0,0,-0.1296,-0.1296,-0.13,-0.1303,-0.1304,-0.1307,-0.1308,-0.1307,-0.1314,-0.1313,-0.1314,-0.1315,-0.1321,-0.1322,-0.1322,-0.132,-0.1326,-0.1326,-0.1326,-0.1326,-0.1312,-0.1312,0,0,0,0,0,0,-0.1294,-0.1296,-0.1299,-0.13,-0.1301,-0.1307,-0.1308,-0.1308,-0.1315,-0.1316,-0.1315,-0.1315,-0.1322,-0.1322,-0.1322,-0.1315,-0.1326,-0.1326,-0.1326,-0.1313,-0.1312,-0.1312,0,0,0,0,0,0,-0.1294,-0.1294,-0.1299,-0.1298,-0.1299,-0.1306,-0.1307,-0.1308,-0.1309,-0.1316,-0.1317,-0.1314,-0.1322,-0.1322,-0.132,-0.1315,-0.1326,-0.1326,-0.1313,-0.1313,-0.1312,-0.1299,0,0,0,0,0,0,-0.1294,-0.1294,-0.1292,-0.1298,-0.1299,-0.1296,-0.1306,-0.1308,-0.1309,-0.131,-0.1315,-0.1317,-0.1322,-0.132,-0.132,-0.1315,-0.1326,-0.1314,-0.1313,-0.1312,-0.13,-0.1298,-0.1296,0,0,0,0,0,-0.1294,-0.1287,-0.1291,-0.1292,-0.1296,-0.1296,-0.1296,-0.1303,-0.1308,-0.1306,-0.131,-0.1316,-0.1316,-0.1319,-0.132,-0.1315,-0.1314,-0.1313,-0.1312,-0.1301,-0.1298,-0.1297,0,0,0,0,0,0,-0.128,-0.1288,-0.1293,-0.1288,-0.1291,-0.1298,-0.1295,-0.1301,-0.1302,-0.1303,-0.1311,-0.1313,-0.1309,-0.1312,-0.1316,-0.1309,-0.1316,-0.1315,-0.1307,-0.1305,-0.1303,-0.1302,-0.1326,0,0,0,0,0,-0.1276,-0.1276,-0.1283,-0.1279,-0.128,-0.1287,-0.1288,-0.1293,-0.1296,-0.1297,-0.1302,-0.1305,-0.1305,-0.1305,-0.1306,-0.1301,-0.1302,-0.1297,-0.1296,-0.1294,-0.1293,-0.1291,-0.1289,-0.1309,-0.1309,-0.1309,0,0,-0.1269,-0.1274,-0.1273,-0.1276,-0.1279,-0.1278,-0.1288,-0.1287,-0.1287,-0.1297,-0.1295,-0.1298,-0.1302,-0.1298,-0.1297,-0.13,-0.1288,-0.1293,-0.1292,-0.1292,-0.129,-0.1288,-0.1287,-0.1309,-0.1309,-0.1309,0,0,-0.1255,-0.1259,-0.1255,-0.1258,-0.1263,-0.1268,-0.1267,-0.1273,-0.1276,-0.1274,-0.1282,-0.1281,-0.1282,-0.1285,-0.1286,-0.1274,-0.128,-0.1274,-0.1265,-0.1263,-0.1261,-0.126,-0.1256,-0.1254,-0.1273,-0.1273,-0.1273,0,-0.1245,-0.1245,-0.1253,-0.1251,-0.1252,-0.1262,-0.1259,-0.1261,-0.1266,-0.1267,-0.1271,-0.1272,-0.1276,-0.1272,-0.127,-0.127,-0.127,-0.1273,-0.1261,-0.126,-0.1258,-0.1254,-0.1253,-0.1272,-0.1273,-0.1273,-0.1273,0,-0.1232,-0.1232,-0.1229,-0.1233,-0.1234,-0.1232,-0.1239,-0.1239,-0.1245,-0.1249,-0.1247,-0.1252,-0.1254,-0.1254,-0.1259,-0.1252,-0.1254,-0.1259,-0.1267,-0.1256,-0.1252,-0.1251,-0.1271,-0.1272,-0.1272,-0.1272,0,0,-0.1209,-0.1219,-0.1217,-0.122,-0.1226,-0.1226,-0.1224,-0.1226,-0.1226,-0.1229,-0.1228,-0.1229,-0.1234,-0.1236,-0.1241,-0.1239,-0.1229,-0.1245,-0.1245,-0.1242,-0.1222,-0.1218,-0.1216,-0.1234,-0.1233,-0.1233,-0.1222,0,-0.1197,-0.1194,-0.1202,-0.1197,-0.1197,-0.1207,-0.1205,-0.1209,-0.1213,-0.1214,-0.1219,-0.1219,-0.1226,-0.1227,-0.1226,-0.1231,-0.1226,-0.1232,-0.1232,-0.1232,-0.1231,-0.1214,-0.1209,-0.1198,-0.122,-0.122,-0.122,0,-0.1181,-0.1184,-0.1179,-0.1186,-0.1186,-0.1185,-0.1188,-0.1188,-0.1193,-0.1196,-0.1198,-0.1205,-0.1204,-0.1211,-0.121,-0.1214,-0.1215,-0.1218,-0.1217,-0.1217,-0.1225,-0.1213,-0.1195,-0.1193,-0.1218,-0.1218,-0.1218,0,-0.1165,-0.1167,-0.1165,-0.1167,-0.1175,-0.1173,-0.1177,-0.1181,-0.1183,-0.1185,-0.1186,-0.1189,-0.119,-0.1192,-0.1199,-0.1204,-0.1197,-0.1205,-0.12,-0.1199,-0.1197,-0.1197,-0.1179,-0.1198,-0.1198,-0.1198,-0.1198,0,-0.115,-0.1147,-0.1158,-0.1156,-0.1154,-0.1162,-0.1159,-0.1163,-0.1168,-0.1167,-0.1176,-0.1176,-0.1185,-0.1186,-0.1191,-0.119,-0.119,-0.1193,-0.1194,-0.1192,-0.1192,-0.1192,-0.1193,-0.1198,-0.1198,-0.1198,-0.1198,0,-0.1131,-0.1138,-0.1136,-0.1144,-0.1146,-0.1144,-0.115,-0.1149,-0.1155,-0.1154,-0.1155,-0.1163,-0.1164,-0.1172,-0.1175,-0.1179,-0.1175,-0.1178,-0.1173,-0.1174,-0.1169,-0.1169,-0.115,-0.1148,-0.1168,-0.1168,-0.1168,0,-0.112,-0.1118,-0.1126,-0.1127,-0.113,-0.113,-0.1132,-0.114,-0.1141,-0.1147,-0.1145,-0.1147,-0.115,-0.1151,-0.1158,-0.116,-0.1163,-0.1156,-0.1164,-0.1161,-0.1163,-0.1163,-0.1163,-0.1154,-0.1154,-0.1154,-0.1154,0,-0.1101,-0.1105,-0.1107,-0.111,-0.1111,-0.1114,-0.1117,-0.1117,-0.1127,-0.1128,-0.113,-0.1131,-0.1135,-0.1137,-0.114,-0.1144,-0.115,-0.1152,-0.1151,-0.1148,-0.1145,-0.1147,-0.1169,-0.1152,-0.1152,-0.1152,-0.1152,-0.1152,-0.1086,-0.1085,-0.109,-0.1092,-0.1096,-0.1099,-0.1098,-0.1104,-0.1106,-0.1109,-0.1114,-0.1115,-0.112,-0.1126,-0.1129,-0.113,-0.1134,-0.1132,-0.1132,-0.1131,-0.113,-0.1145,-0.1131,-0.1131,-0.1131,-0.1131,-0.1131,0,-0.1068,-0.1072,-0.1073,-0.1078,-0.1079,-0.1086,-0.109,-0.1091,-0.1092,-0.1096,-0.1098,-0.11,-0.1102,-0.1109,-0.1112,-0.1112,-0.1115,-0.1112,-0.1112,-0.1113,-0.1127,-0.1127,-0.111,-0.111,-0.111,-0.111,-0.111,-0.111,-0.1058,-0.1056,-0.1061,-0.1062,-0.1066,-0.1067,-0.1069,-0.1072,-0.1075,-0.1077,-0.1079,-0.1084,-0.1089,-0.1093,-0.1095,-0.1097,-0.1098,-0.1094,-0.1097,-0.111,-0.1112,-0.1114,-0.1114,-0.1094,-0.1094,-0.1083,-0.1083,-0.1083]}]]